Gonets-M No. 24L

operational
NORAD ID: 44905 Int'l Des: 2019-096 Owner: GONETS Country: RU
LEOCIRCULARPOLAR
追跡 地上

Gonets-M No. 24Lについて

説明を読み込み中...

リアルタイム位置

3D地球を読み込み中...

次回通過

高度履歴

Altitude vs Time

uPlot chart will show altitude changes over time

軌道要素

1 44905U 19096A 26073.62370537 -.00000070 00000-0 -57758-3 0 9992
2 44905 82.5253 143.2706 0013046 5.7793 354.3435 12.42867435281939
Epoch: Mar 14, 2026 • Age: 11 hours

現在のステータス

高度 1514.1 km
速度 7.10 km/s
衛星直下点 -27.82°S, 128.1°E
打ち上げ日 Dec 26, 2019
運用期間 6.2 years
タイプ other

技術仕様

分類 Payload
質量 225.00 kg
乾燥質量 225.00 kg
総質量 225.00 kg
長さ 1.60 m
直径 0.80 m
スパン 7.00 m
形状 Cyl + Ant
製造者 RESH
バスタイプ Strela-3M
フェーズステータス In Orbit
所有者/国 GONETS/RU

大規模コンステレーション

Loading constellations...